Weather History for KPIL - January, 2014

Change the Weather History Date:

Monday, January 27, 2014

  Actual Average Record
Temperature  
Mean Temperature 66 °F -  
Max Temperature 77 °F - - ()
Min Temperature 54 °F - - ()
Cooling Degree Days 1    
Growing Degree Days 16 (Base 50)    
Moisture  
Dew Point 60 °F    
Average Humidity 84    
Maximum Humidity 97    
Minimum Humidity 55    
Precipitation  
Precipitation 0.00 in - - ()
Sea Level Pressure  
Sea Level Pressure 29.90 in    
Wind  
Wind Speed 8 mph (South)    
Max Wind Speed 22 mph    
Max Gust Speed 30 mph    
Visibility 5 miles    
Events Fog    
T = Trace of Precipitation, MM = Missing Value Source: NWS Daily Summary

Daily Weather History Graph

Daily Weather History Graph

Search for Another Location

Airport or City:

Trip Planner

Search our weather history database for the weather conditions in past years. The results will help you decide how hot, cold, wet, or windy it might be!

Date:

Astronomy

Jan. 27, 2014 Rise Set
Actual Time 7:15 AM CST 6:08 PM CST
Civil Twilight 6:51 AM CST 6:33 PM CST
Nautical Twilight 6:23 AM CST 7:00 PM CST
Astronomical Twilight 5:56 AM CST 7:28 PM CST
Moon 3:54 AM CST (1/27) 3:00 PM CST (1/27)
Length of Visible Light 11h 41m
Length of Day
10h 53m
Waning Crescent, 14% of the Moon is Illuminated
Jan 27
Waning Crescent
Jan 30
New
Feb 6
First Quarter
Feb 14
Full
Feb 22
Last Quarter

Hourly Weather History & Observations

Time (CST) Temp. Dew Point Humidity Pressure Visibility Wind Dir Wind Speed Gust Speed Precip Events Conditions
12:53 AM 61.0 °F 60.1 °F 97% 29.82 in 5.0 mi South 6.9 mph - N/A   Clear
1:53 AM 62.1 °F 60.1 °F 93% 29.82 in 5.0 mi South 6.9 mph - N/A   Clear
2:41 AM 60.8 °F 59.0 °F 94% 29.82 in 4.0 mi SSW 6.9 mph - N/A   Partly Cloudy
2:53 AM 61.0 °F 59.0 °F 93% 29.81 in 4.0 mi South 6.9 mph - N/A   Partly Cloudy
3:53 AM 62.1 °F 60.1 °F 93% 29.81 in 4.0 mi South 9.2 mph - N/A   Partly Cloudy
4:53 AM 62.1 °F 60.1 °F 93% 29.81 in 4.0 mi South 5.8 mph - N/A   Clear
5:29 AM 60.8 °F 59.0 °F 94% 29.82 in 2.5 mi South 4.6 mph - N/A   Clear
5:44 AM 60.8 °F 57.2 °F 88% 29.82 in 1.0 mi SSW 3.5 mph - N/A   Mist
5:53 AM 60.1 °F 57.9 °F 93% 29.83 in 0.8 mi Calm Calm - N/A   Mist
6:29 AM 60.8 °F 57.2 °F 88% 29.84 in 0.2 mi South 4.6 mph - N/A Fog Fog
6:46 AM 59.0 °F 57.2 °F 94% 29.85 in 0.2 mi South 3.5 mph - N/A Fog Fog
6:53 AM 57.9 °F 57.0 °F 97% 29.86 in 0.2 mi Calm Calm - N/A Fog Fog
7:02 AM 59.0 °F 57.2 °F 94% 29.86 in 0.8 mi Calm Calm - N/A   Overcast
7:10 AM 60.8 °F 59.0 °F 94% 29.87 in 1.8 mi SSW 4.6 mph - N/A   Overcast
7:25 AM 62.6 °F 60.8 °F 94% 29.87 in 0.5 mi Calm Calm - N/A Fog Fog
7:32 AM 62.6 °F 60.8 °F 94% 29.87 in 0.2 mi South 4.6 mph - N/A Fog Fog
7:53 AM 63.0 °F 62.1 °F 97% 29.88 in 0.2 mi South 4.6 mph - N/A Fog Fog
8:53 AM 66.0 °F 64.9 °F 96% 29.90 in 0.2 mi SSW 9.2 mph - N/A Fog Fog
9:35 AM 68.0 °F 66.2 °F 94% 29.91 in 0.8 mi SSW 9.2 mph - N/A   Overcast
9:43 AM 68.0 °F 66.2 °F 94% 29.91 in 1.5 mi SSW 8.1 mph - N/A   Overcast
9:52 AM 69.1 °F 66.9 °F 93% 29.91 in 3.0 mi SSW 10.4 mph - N/A   Overcast
10:15 AM 69.8 °F 66.2 °F 88% 29.92 in 5.0 mi SSW 9.2 mph - N/A   Overcast
10:53 AM 70.0 °F 66.9 °F 90% 29.93 in 5.0 mi SSW 5.8 mph - N/A   Overcast
11:50 AM 73.4 °F 66.2 °F 78% 29.92 in 8.0 mi SSW 4.6 mph - N/A   Mostly Cloudy
11:53 AM 73.9 °F 66.9 °F 79% 29.92 in 8.0 mi Variable 4.6 mph - N/A   Mostly Cloudy
12:26 PM 75.2 °F 66.2 °F 73% 29.92 in 9.0 mi Calm Calm - N/A   Mostly Cloudy
12:53 PM 77.0 °F 64.9 °F 66% 29.92 in 10.0 mi Variable 5.8 mph - N/A   Mostly Cloudy
1:40 PM 73.4 °F 64.4 °F 73% 29.90 in 9.0 mi East 10.4 mph - N/A   Scattered Clouds
1:53 PM 73.0 °F 64.9 °F 76% 29.90 in 9.0 mi NE 10.4 mph - N/A   Partly Cloudy
2:11 PM 71.6 °F 64.4 °F 78% 29.90 in 8.0 mi NE 12.7 mph - N/A   Partly Cloudy
2:23 PM 69.8 °F 64.4 °F 83% 29.90 in 7.0 mi NNE 13.8 mph - N/A   Mostly Cloudy
2:53 PM 69.1 °F 63.0 °F 81% 29.90 in 7.0 mi North 16.1 mph - N/A   Overcast
3:18 PM 66.2 °F 60.8 °F 83% 29.90 in 8.0 mi North 18.4 mph 24.2 mph N/A   Overcast
3:45 PM 66.2 °F 60.8 °F 83% 29.91 in 7.0 mi NNE 17.3 mph - N/A   Overcast
3:53 PM 66.0 °F 60.1 °F 81% 29.91 in 7.0 mi NNE 17.3 mph - N/A   Overcast
4:50 PM 64.4 °F 57.2 °F 77% 29.93 in 8.0 mi North 20.7 mph 29.9 mph N/A   Overcast
4:53 PM 64.9 °F 57.0 °F 75% 29.94 in 8.0 mi North 17.3 mph 29.9 mph N/A   Overcast
5:53 PM 63.0 °F 57.0 °F 81% 29.96 in 7.0 mi NNE 17.3 mph 26.5 mph N/A   Overcast
6:53 PM 63.0 °F 55.0 °F 75% 30.00 in 10.0 mi NNE 19.6 mph 26.5 mph N/A   Overcast
7:53 PM 62.1 °F 52.0 °F 70% 30.03 in 10.0 mi NNE 21.9 mph 28.8 mph N/A   Overcast
8:53 PM 61.0 °F 48.9 °F 64% 30.05 in 10.0 mi North 19.6 mph 27.6 mph N/A   Overcast
9:53 PM 57.9 °F 45.0 °F 62% 30.07 in 10.0 mi North 18.4 mph 24.2 mph N/A   Overcast
10:53 PM 55.9 °F 41.0 °F 57% 30.09 in 10.0 mi North 19.6 mph 26.5 mph N/A   Overcast
11:53 PM 54.0 °F 37.9 °F 55% 30.09 in 10.0 mi North 18.4 mph 27.6 mph N/A   Overcast